EW5622 Weather Reports


Display with metric or nautical units.
time (UTC)temp
F
wind
direction
speed
MPH
gust
MPH
rain 1hr
in
rain 24hr
in
rain mn
in
humidity
%
barometer
mb
20260904175403 75 232 39.0 39.0 0.00 0.00 0.00 89 1019.1
20260904174503 75 315 0.0 39.0 0.00 0.00 0.00 88 1019.1
20260904173814 76 225 0.0 33.0 0.00 0.00 0.00 87 1018.1
20260904172703 76 236 0.0 4.0 0.00 0.00 0.00 87 1018.1
20260904171803 76 308 0.0 36.0 0.00 0.00 0.00 86 1019.1
20260904170905 77 225 0.0 77.0 0.00 0.00 0.00 86 1018.1
20260904170005 77 236 0.0 60.0 0.00 0.00 0.00 84 1018.1
20260904165404 78 243 0.0 60.0 0.00 0.00 0.00 84 1018.1
20260904164505 78 0 0.0 0.0 0.00 0.00 0.00 84 1018.1
20260904163603 78 315 0.0 3.0 0.00 0.00 0.00 83 1018.1
20260904162703 79 315 3.0 49.0 0.00 0.00 0.00 83 1018.1
20260904162016 78 315 0.0 18.0 0.00 0.00 0.00 82 1018.1
20260904160905 79 273 0.0 49.0 0.00 0.00 0.00 80 1018.1
20260904160005 81 0 0.0 0.0 0.00 0.00 0.00 79 1018.1
20260904155405 81 310 0.0 26.0 0.00 0.00 0.00 78 1019.1
20260904154503 83 255 26.0 52.0 0.00 0.00 0.00 77 1019.1
20260904153603 84 229 2.0 37.0 0.00 0.00 0.00 76 1018.1
20260904152703 84 310 0.0 77.0 0.00 0.00 0.00 76 1018.1
20260904152016 84 315 4.0 77.0 0.00 0.00 0.00 76 1019.1
20260904150904 85 225 1.0 64.0 0.00 0.00 0.00 75 1018.1
20260904150214 85 315 0.0 27.0 0.00 0.00 0.00 75 1018.1
20260904145405 85 315 0.0 30.0 0.00 0.00 0.00 74 1018.1
20260904144713 85 240 26.0 39.0 0.00 0.00 0.00 75 1018.1
20260904143603 86 300 8.0 32.0 0.00 0.00 0.00 75 1019.1
20260904142708 84 315 0.0 39.0 0.00 0.00 0.00 76 1019.1
20260904141803 85 315 0.0 22.0 0.00 0.00 0.00 75 1019.1
20260904140903 85 305 0.0 77.0 0.00 0.00 0.00 75 1019.1
20260904140003 85 315 0.0 77.0 0.00 0.00 0.00 74 1019.1
20260904135405 86 315 46.0 46.0 0.00 0.00 0.00 74 1018.1
20260904134503 85 306 0.0 48.0 0.00 0.00 0.00 73 1018.1
20260904133603 85 247 0.0 77.0 0.00 0.00 0.00 72 1018.1
20260904132703 85 286 39.0 45.0 0.00 0.00 0.00 73 1018.1
20260904131803 85 303 33.0 33.0 0.00 0.00 0.00 72 1019.1
20260904130904 85 274 0.0 39.0 0.00 0.00 0.00 72 1019.1
20260904130213 84 255 0.0 77.0 0.00 0.00 0.00 73 1019.1
20260904125405 83 267 0.0 65.0 0.00 0.00 0.00 74 1019.1
20260904124503 83 303 13.0 39.0 0.00 0.00 0.00 74 1019.1
20260904123603 83 306 25.0 60.0 0.00 0.00 0.00 74 1019.1
20260904122705 83 246 27.0 75.0 0.00 0.00 0.00 73 1019.1
20260904122013 83 222 75.0 77.0 0.00 0.00 0.00 73 1019.1
20260904120903 83 315 39.0 39.0 0.00 0.00 0.00 73 1019.1
20260904120005 83 312 26.0 77.0 0.00 0.00 0.00 73 1019.1
20260904115405 82 310 43.0 77.0 0.00 0.00 0.00 72 1019.1
20260904114503 82 207 26.0 77.0 0.00 0.00 0.00 73 1019.1
20260904113605 82 260 39.0 76.0 0.00 0.00 0.00 73 1019.1
20260904112703 82 302 0.0 75.0 0.00 0.00 0.00 73 1019.1
20260904111803 82 207 39.0 77.0 0.00 0.00 0.00 73 1019.1
20260904110903 82 221 73.0 77.0 0.00 0.00 0.00 74 1019.1
20260904110213 82 232 11.0 77.0 0.00 0.00 0.00 75 1019.1
20260904105404 82 230 0.0 69.0 0.00 0.00 0.00 74 1019.1
20260904104503 82 307 0.0 39.0 0.00 0.00 0.00 75 1019.1
20260904103603 82 319 37.0 77.0 0.00 0.00 0.00 76 1018.1
20260904102703 82 307 39.0 40.0 0.00 0.00 0.00 77 1018.1
20260904101805 83 317 0.0 45.0 0.00 0.00 0.00 78 1018.1
20260904100905 83 293 39.0 78.0 0.00 0.00 0.00 79 1018.1
20260904100214 82 291 75.0 78.0 0.00 0.00 0.00 80 1018.1
20260904095403 82 301 39.0 39.0 0.00 0.00 0.00 81 1018.1
20260904094713 82 0 0.0 0.0 0.00 0.00 0.00 84 1018.1
20260904093603 82 0 0.0 0.0 0.00 0.00 0.00 85 1018.1
20260904092914 81 0 0.0 0.0 0.00 0.00 0.00 87 1018.1
20260904091804 78 0 0.0 0.0 0.00 0.00 0.00 90 1018.1
20260904091113 77 0 0.0 0.0 0.00 0.00 0.00 92 1018.1
20260904090005 74 0 0.0 0.0 0.00 0.00 0.00 95 1018.1
20260904085405 74 0 0.0 0.0 0.00 0.00 0.00 96 1018.1
20260904084503 72 0 0.0 0.0 0.00 0.00 0.00 98 1018.1
20260904083814 71 0 0.0 0.0 0.00 0.00 0.00 98 1018.1
20260904082703 69 0 0.0 0.0 0.00 0.00 0.00 98 1018.1
20260904082013 69 0 0.0 0.0 0.00 0.00 0.00 98 1017.1
20260904080905 67 0 0.0 0.0 0.00 0.00 0.00 98 1017.1
20260904080003 66 0 0.0 0.0 0.00 0.00 0.00 98 1017.1
20260904075613 66 0 0.0 0.0 0.00 0.00 0.00 98 1018.1
20260904074503 65 0 0.0 0.0 0.00 0.00 0.00 98 1018.1
20260904073603 64 0 0.0 0.0 0.00 0.00 0.00 98 1017.1
20260904072703 64 0 0.0 0.0 0.00 0.00 0.00 98 1017.1
20260904071803 63 0 0.0 0.0 0.00 0.00 0.00 98 1017.1
20260904070903 63 0 0.0 0.0 0.00 0.00 0.00 98 1017.1
20260904070213 63 0 0.0 0.0 0.00 0.00 0.00 98 1017.1
20260904065403 62 0 0.0 0.0 0.00 0.00 0.00 98 1017.1
20260904064503 62 0 0.0 0.0 0.00 0.00 0.00 98 1017.1
20260904063603 62 0 0.0 0.0 0.00 0.00 0.00 98 1017.1
20260904062704 61 0 0.0 0.0 0.00 0.00 0.00 98 1017.1
20260904061803 61 0 0.0 0.0 0.00 0.00 0.00 98 1017.1
20260904060904 61 0 0.0 0.0 0.00 0.00 0.00 98 1017.1
20260904060003 61 0 0.0 0.0 0.00 0.00 0.00 98 1017.1
20260904055405 61 0 0.0 0.0 0.00 0.00 0.00 98 1017.1
20260904054505 61 0 0.0 0.0 0.00 0.00 0.00 98 1017.1
20260904053815 61 0 0.0 0.0 0.00 0.00 0.00 98 1017.1
20260904052705 61 0 0.0 0.0 0.00 0.00 0.00 98 1017.1
20260904051803 61 0 0.0 0.0 0.00 0.00 0.00 98 1017.1
20260904050904 61 0 0.0 0.0 0.00 0.00 0.00 98 1017.1
20260904050003 61 0 0.0 0.0 0.00 0.00 0.00 98 1017.1
20260904045403 61 0 0.0 0.0 0.00 0.00 0.00 98 1017.1
20260904044505 61 0 0.0 0.0 0.00 0.00 0.00 98 1017.1
20260904043603 61 0 0.0 0.0 0.00 0.00 0.00 98 1017.1
20260904042703 61 0 0.0 0.0 0.00 0.00 0.00 98 1017.1
20260904041803 60 0 0.0 0.0 0.00 0.00 0.00 98 1017.1
20260904040906 60 0 0.0 0.0 0.00 0.00 0.00 98 1017.1
20260904040006 60 0 0.0 0.0 0.00 0.00 0.00 98 1017.1
20260904035614 60 0 0.0 0.0 0.00 0.00 0.00 98 1017.1
20260904034504 61 0 0.0 0.0 0.00 0.00 0.00 98 1017.1
20260904033603 60 0 0.0 0.0 0.00 0.00 0.00 98 1017.1
20260904032703 60 0 0.0 0.0 0.00 0.00 0.00 98 1017.1
20260904032013 61 0 0.0 0.0 0.00 0.00 0.00 98 1018.1
20260904030903 61 0 0.0 0.0 0.00 0.00 0.00 98 1018.1
20260904030003 61 0 0.0 0.0 0.00 0.00 0.00 98 1018.1
20260904025403 60 0 0.0 0.0 0.00 0.00 0.00 98 1018.1
20260904024503 60 0 0.0 0.0 0.00 0.00 0.00 98 1018.1
20260904023604 60 0 0.0 0.0 0.00 0.00 0.00 98 1018.1
20260904022703 59 0 0.0 0.0 0.00 0.00 0.00 98 1018.1
20260904021803 59 0 0.0 0.0 0.00 0.00 0.00 98 1018.1
20260904020905 59 0 0.0 0.0 0.00 0.00 0.00 98 1018.1
20260904020004 59 0 0.0 0.0 0.00 0.00 0.00 98 1018.1
20260904015405 59 0 0.0 0.0 0.00 0.00 0.00 98 1018.1
20260904014504 58 0 0.0 0.0 0.00 0.00 0.00 98 1018.1
20260904013814 58 0 0.0 0.0 0.00 0.00 0.00 98 1019.1
20260904012703 58 0 0.0 0.0 0.00 0.00 0.00 98 1019.1
20260904012012 59 0 0.0 0.0 0.00 0.00 0.00 98 1019.1
20260904010903 59 0 0.0 0.0 0.00 0.00 0.00 98 1019.1
20260904010005 59 0 0.0 0.0 0.00 0.00 0.00 98 1019.1
20260904005403 59 0 0.0 0.0 0.00 0.00 0.00 98 1019.1
20260904004503 59 0 0.0 0.0 0.00 0.00 0.00 98 1019.1
20260904003603 60 0 0.0 0.0 0.00 0.00 0.00 98 1019.1
20260904002915 60 0 0.0 0.0 0.00 0.00 0.00 98 1019.1
20260904002014 60 0 0.0 0.0 0.00 0.00 0.00 98 1019.1
20260904000903 60 0 0.0 0.0 0.00 0.00 0.00 98 1019.1
20260904000003 60 0 0.0 0.0 0.00 0.00 0.00 98 1019.1
20260903235403 61 0 0.0 0.0 0.00 0.00 0.00 98 1019.1
20260903234503 61 0 0.0 0.0 0.00 0.00 0.00 98 1019.1
20260903233604 61 0 0.0 0.0 0.00 0.00 0.00 98 1019.1
20260903232703 62 0 0.0 0.0 0.00 0.00 0.00 97 1019.1
20260903231805 62 0 0.0 0.0 0.00 0.00 0.00 97 1019.1
20260903230905 62 0 0.0 0.0 0.00 0.00 0.00 97 1019.1
20260903230005 62 0 0.0 0.0 0.00 0.00 0.00 97 1019.1
20260903225405 62 0 0.0 0.0 0.00 0.00 0.00 97 1019.1
20260903224715 62 0 0.0 0.0 0.00 0.00 0.00 96 1019.1
20260903223603 63 0 0.0 0.0 0.00 0.00 0.00 96 1020.1
20260903222703 63 0 0.0 0.0 0.00 0.00 0.00 96 1020.1
20260903221805 63 0 0.0 0.0 0.00 0.00 0.00 95 1020.1
20260903220903 64 0 0.0 0.0 0.00 0.00 0.00 95 1020.1
20260903220214 64 0 0.0 0.0 0.00 0.00 0.00 95 1020.1
20260903215403 64 0 0.0 0.0 0.00 0.00 0.00 94 1020.1
20260903214713 64 0 0.0 0.0 0.00 0.00 0.00 94 1020.1
20260903213605 65 0 0.0 0.0 0.00 0.00 0.00 93 1020.1
20260903212703 65 0 0.0 0.0 0.00 0.00 0.00 93 1020.1
20260903212013 65 0 0.0 0.0 0.00 0.00 0.00 93 1020.1
20260903210903 66 0 0.0 0.0 0.00 0.00 0.00 92 1020.1
20260903210003 66 0 0.0 0.0 0.00 0.00 0.00 92 1020.1
20260903205617 66 0 0.0 0.0 0.00 0.00 0.00 92 1020.1
20260903204503 67 0 0.0 0.0 0.00 0.00 0.00 91 1020.1
20260903203603 67 0 0.0 0.0 0.00 0.00 0.00 91 1020.1
20260903202703 68 0 0.0 0.0 0.00 0.00 0.00 91 1020.1
20260903201803 68 0 0.0 0.0 0.00 0.00 0.00 90 1020.1
20260903201114 68 0 0.0 0.0 0.00 0.00 0.00 90 1020.1
20260903200213 69 0 0.0 0.0 0.00 0.00 0.00 89 1020.1
20260903195403 69 0 0.0 0.0 0.00 0.00 0.00 89 1020.1
20260903194503 69 0 0.0 0.0 0.00 0.00 0.00 88 1020.1
20260903193603 70 0 0.0 0.0 0.00 0.00 0.00 87 1020.1
20260903192913 70 0 0.0 0.0 0.00 0.00 0.00 87 1020.1
20260903191805 71 0 0.0 0.0 0.00 0.00 0.00 85 1020.1
20260903190904 71 0 0.0 0.0 0.00 0.00 0.00 84 1020.1
20260903190003 72 0 0.0 0.0 0.00 0.00 0.00 81 1020.1
20260903185614 72 0 0.0 0.0 0.00 0.00 0.00 81 1020.1
20260903184503 72 0 0.0 0.0 0.00 0.00 0.00 79 1020.1
20260903183603 73 0 0.0 0.0 0.00 0.00 0.00 78 1020.1
20260903182703 74 0 0.0 0.0 0.00 0.00 0.00 76 1020.1
20260903181803 74 0 0.0 0.0 0.00 0.00 0.00 74 1020.1
20260903180908 75 0 0.0 0.0 0.00 0.00 0.00 72 1020.1
20260903180214 75 0 0.0 0.0 0.00 0.00 0.00 71 1020.1